EW9831 Weather Reports


time (UTC)temp
C
wind
direction
speed
KPH
gust
KPH
rain 1hr
cm
rain 24hr
cm
rain mn
cm
humidity
%
barometer
mb
20200930025105 13 120 0.0 0.0 0.00 0.00 0.00 80 1016.6
20200930024606 13 120 0.0 8.0 0.00 0.00 0.00 80 1016.6
20200930023605 13 120 8.0 8.0 0.00 0.00 0.00 79 1016.6
20200930023106 13 120 8.0 8.0 0.00 0.00 0.00 79 1016.6
20200930021603 13 120 8.0 8.0 0.00 0.00 0.00 78 1016.8
20200930020105 13 80 0.0 0.0 0.00 0.00 0.00 78 1016.9
20200930015104 13 80 0.0 0.0 0.00 0.00 0.00 78 1017.0
20200930014609 14 80 0.0 0.0 0.00 0.00 0.00 78 1017.0
20200930014109 14 80 0.0 0.0 0.00 0.00 0.00 78 1017.0
20200930013604 14 80 0.0 0.0 0.00 0.00 0.00 77 1017.0
20200930012604 14 80 0.0 0.0 0.00 0.00 0.00 77 1017.0
20200930011603 14 80 0.0 0.0 0.00 0.00 0.00 77 1017.0
20200930010603 14 80 0.0 0.0 0.00 0.00 0.00 76 1017.0
20200930010105 14 80 0.0 0.0 0.00 0.00 0.00 76 1017.0
20200930005604 14 80 0.0 0.0 0.00 0.00 0.00 75 1017.1
20200930004604 15 80 0.0 0.0 0.00 0.00 0.00 75 1017.0
20200930004104 15 80 0.0 0.0 0.00 0.00 0.00 75 1017.0
20200930003103 15 80 0.0 0.0 0.00 0.00 0.00 76 1017.1
20200930002604 15 80 0.0 0.0 0.00 0.00 0.00 76 1017.0
20200930001105 15 80 0.0 0.0 0.00 0.00 0.00 75 1017.0
20200930000106 15 80 0.0 0.0 0.00 0.00 0.00 75 1017.0
20200929235611 15 80 0.0 0.0 0.00 0.00 0.00 75 1017.0
20200929234603 15 80 0.0 0.0 0.00 0.00 0.00 75 1017.1
20200929233608 15 80 0.0 0.0 0.00 0.00 0.00 75 1017.0
20200929232105 15 80 0.0 0.0 0.00 0.00 0.00 75 1017.0
20200929231605 15 80 0.0 0.0 0.00 0.00 0.00 74 1017.0
20200929230605 16 80 0.0 0.0 0.00 0.00 0.00 73 1017.1
20200929225604 16 80 0.0 0.0 0.00 0.00 0.00 71 1017.1
20200929225103 16 80 0.0 0.0 0.00 0.00 0.00 71 1017.1
20200929224604 16 80 0.0 0.0 0.00 0.00 0.00 71 1017.1
20200929224105 16 80 0.0 0.0 0.00 0.00 0.00 71 1017.1
20200929223604 16 80 0.0 0.0 0.00 0.00 0.00 71 1017.0
20200929222603 16 80 0.0 0.0 0.00 0.00 0.00 70 1017.0
20200929221604 16 80 0.0 4.8 0.00 0.00 0.00 68 1017.0
20200929221107 16 80 4.8 4.8 0.00 0.00 0.00 68 1017.0
20200929220106 16 80 4.8 4.8 0.00 0.00 0.00 68 1017.0
20200929215611 16 80 4.8 4.8 0.00 0.00 0.00 68 1017.0
20200929214604 17 80 4.8 4.8 0.00 0.00 0.00 68 1017.0
20200929214110 17 310 0.0 0.0 0.00 0.00 0.00 68 1017.0
20200929213103 17 310 0.0 0.0 0.00 0.00 0.00 67 1017.2
20200929212605 17 310 0.0 0.0 0.00 0.00 0.00 67 1017.2
20200929211612 17 310 0.0 0.0 0.00 0.00 0.00 67 1017.0
20200929211104 17 310 0.0 0.0 0.00 0.00 0.00 66 1017.1
20200929210604 17 310 0.0 0.0 0.00 0.00 0.00 66 1017.1
20200929210112 17 310 0.0 0.0 0.00 0.00 0.00 66 1017.0
20200929205606 17 310 0.0 0.0 0.00 0.00 0.00 66 1017.0
20200929205104 17 310 0.0 0.0 0.00 0.00 0.00 67 1017.0
20200929204105 17 310 1.6 1.6 0.00 0.00 0.00 65 1017.0
20200929203606 17 310 1.6 1.6 0.00 0.00 0.00 65 1017.0
20200929203104 18 310 1.6 1.6 0.00 0.00 0.00 64 1017.0
20200929202604 18 310 1.6 1.6 0.00 0.00 0.00 64 1017.0
20200929202105 18 310 1.6 1.6 0.00 0.00 0.00 63 1017.0
20200929201604 18 310 1.6 1.6 0.00 0.00 0.00 63 1017.0
20200929200606 18 330 0.0 0.0 0.00 0.00 0.00 62 1017.0
20200929200106 18 330 0.0 0.0 0.00 0.00 0.00 61 1016.9
20200929195106 18 330 0.0 0.0 0.00 0.00 0.00 60 1016.8
20200929194104 18 330 9.7 9.7 0.00 0.00 0.00 59 1016.8
20200929193604 18 330 9.7 9.7 0.00 0.00 0.00 59 1016.8
20200929192614 19 330 9.7 9.7 0.00 0.00 0.00 58 1016.7
20200929191609 19 330 9.7 12.9 0.00 0.00 0.00 57 1016.7
20200929191104 19 320 12.9 12.9 0.00 0.00 0.00 56 1016.7
20200929190113 20 320 12.9 12.9 0.00 0.00 0.00 54 1016.6
20200929185604 20 320 12.9 12.9 0.00 0.00 0.00 54 1016.6
20200929185103 20 320 12.9 12.9 0.00 0.00 0.00 52 1016.5
20200929184605 20 320 12.9 12.9 0.00 0.00 0.00 52 1016.5
20200929184109 20 310 9.7 9.7 0.00 0.00 0.00 51 1016.5
20200929183606 20 310 9.7 9.7 0.00 0.00 0.00 51 1016.5
20200929182604 20 310 9.7 9.7 0.00 0.00 0.00 51 1016.3
20200929182103 21 310 9.7 9.7 0.00 0.00 0.00 50 1016.2
20200929181104 21 310 11.3 11.3 0.00 0.00 0.00 50 1016.1
20200929175604 21 310 11.3 11.3 0.00 0.00 0.00 53 1016.1
20200929175104 22 310 11.3 11.3 0.00 0.00 0.00 54 1016.1
20200929174104 22 310 9.7 9.7 0.00 0.00 0.00 54 1016.0
20200929173108 22 310 9.7 9.7 0.00 0.00 0.00 53 1015.8
20200929172604 22 310 9.7 9.7 0.00 0.00 0.00 53 1015.8
20200929172103 22 310 9.7 9.7 0.00 0.00 0.00 52 1015.8
20200929171104 22 320 9.7 9.7 0.00 0.00 0.00 50 1015.8
20200929170604 22 320 9.7 9.7 0.00 0.00 0.00 50 1015.8
20200929165604 23 320 9.7 9.7 0.00 0.00 0.00 49 1015.8
20200929164108 23 320 12.9 12.9 0.00 0.00 0.00 48 1015.8
20200929163605 23 320 12.9 12.9 0.00 0.00 0.00 48 1015.8
20200929163106 23 320 12.9 12.9 0.00 0.00 0.00 49 1015.8
20200929162607 23 320 12.9 12.9 0.00 0.00 0.00 49 1015.8
20200929161604 23 320 12.9 12.9 0.00 0.00 0.00 48 1015.7
20200929161105 23 320 12.9 12.9 0.00 0.00 0.00 48 1015.7
20200929160106 23 320 12.9 12.9 0.00 0.00 0.00 48 1015.8
20200929155604 23 320 12.9 12.9 0.00 0.00 0.00 48 1015.8
20200929155104 23 320 12.9 12.9 0.00 0.00 0.00 49 1015.8
20200929154605 23 320 12.9 12.9 0.00 0.00 0.00 49 1015.8
20200929154104 24 320 12.9 12.9 0.00 0.00 0.00 48 1015.8
20200929153605 24 320 12.9 12.9 0.00 0.00 0.00 48 1015.8
20200929152103 24 320 12.9 12.9 0.00 0.00 0.00 48 1015.8
20200929151604 24 320 12.9 12.9 0.00 0.00 0.00 48 1015.8
20200929150604 24 320 12.9 12.9 0.00 0.00 0.00 48 1015.8
20200929145605 25 320 12.9 12.9 0.00 0.00 0.00 48 1015.8
20200929145104 25 320 12.9 12.9 0.00 0.00 0.00 50 1015.8
20200929144604 25 320 12.9 12.9 0.00 0.00 0.00 50 1015.8
20200929143604 25 290 11.3 11.3 0.00 0.00 0.00 50 1015.8
20200929143111 25 290 11.3 11.3 0.00 0.00 0.00 50 1015.9
20200929142604 25 290 11.3 11.3 0.00 0.00 0.00 50 1015.9
20200929142104 25 290 11.3 11.3 0.00 0.00 0.00 49 1015.9
20200929141607 25 290 11.3 11.3 0.00 0.00 0.00 49 1015.9
20200929135604 26 290 9.7 9.7 0.00 0.00 0.00 50 1016.0
20200929133609 26 300 9.7 9.7 0.00 0.00 0.00 49 1016.2
20200929133108 27 300 9.7 9.7 0.00 0.00 0.00 49 1016.4
20200929132105 27 300 9.7 9.7 0.00 0.00 0.00 48 1016.4
20200929131605 27 300 9.7 9.7 0.00 0.00 0.00 48 1016.4
20200929130604 27 290 8.0 8.0 0.00 0.00 0.00 49 1016.6
20200929125606 27 290 8.0 8.0 0.00 0.00 0.00 49 1016.6
20200929124604 27 290 8.0 9.7 0.00 0.00 0.00 49 1016.7
20200929122109 27 290 9.7 9.7 0.00 0.00 0.00 49 1016.9
20200929121604 27 290 9.7 9.7 0.00 0.00 0.00 49 1016.9
20200929121105 26 300 9.7 9.7 0.00 0.00 0.00 49 1017.0
20200929120604 26 300 9.7 9.7 0.00 0.00 0.00 49 1017.0
20200929120109 26 300 9.7 9.7 0.00 0.00 0.00 48 1017.0
20200929115104 26 300 9.7 9.7 0.00 0.00 0.00 47 1016.9
20200929114605 26 300 9.7 9.7 0.00 0.00 0.00 47 1016.9
20200929114104 26 290 8.0 8.0 0.00 0.00 0.00 49 1017.0
20200929113104 25 290 8.0 8.0 0.00 0.00 0.00 50 1017.0
20200929112605 25 290 8.0 8.0 0.00 0.00 0.00 50 1017.0
20200929112105 25 290 8.0 8.0 0.00 0.00 0.00 51 1017.1
20200929110609 25 290 4.8 4.8 0.00 0.00 0.00 52 1017.2
20200929110108 24 290 4.8 4.8 0.00 0.00 0.00 54 1017.3
20200929105105 23 290 4.8 4.8 0.00 0.00 0.00 56 1017.3
20200929104106 23 130 4.8 4.8 0.00 0.00 0.00 60 1017.3
20200929103604 23 130 4.8 4.8 0.00 0.00 0.00 60 1017.3
20200929103105 22 130 4.8 4.8 0.00 0.00 0.00 61 1017.2
20200929101605 22 130 4.8 4.8 0.00 0.00 0.00 63 1017.3
20200929101113 22 130 4.8 4.8 0.00 0.00 0.00 63 1017.3
20200929094109 21 130 4.8 4.8 0.00 0.00 0.00 68 1017.2
20200929093104 20 130 4.8 4.8 0.00 0.00 0.00 69 1017.2
20200929092109 20 130 4.8 4.8 0.00 0.00 0.00 70 1017.2
20200929091606 20 130 4.8 4.8 0.00 0.00 0.00 70 1017.2
20200929085604 19 110 0.0 0.0 0.00 0.00 0.00 73 1017.1
20200929085104 18 110 0.0 0.0 0.00 0.00 0.00 74 1017.1
20200929084604 18 110 0.0 8.0 0.00 0.00 0.00 74 1017.1
20200929083608 18 110 8.0 8.0 0.00 0.00 0.00 77 1017.0
20200929083106 17 110 8.0 8.0 0.00 0.00 0.00 81 1017.0
20200929082604 17 110 8.0 8.0 0.00 0.00 0.00 81 1017.0
20200929082105 16 110 8.0 8.0 0.00 0.00 0.00 85 1016.8
20200929081604 16 110 8.0 8.0 0.00 0.00 0.00 85 1016.8
20200929080106 15 120 0.0 0.0 0.00 0.00 0.00 88 1016.8
20200929075609 14 120 0.0 0.0 0.00 0.00 0.00 89 1016.7
20200929075104 14 120 0.0 0.0 0.00 0.00 0.00 89 1016.7
20200929074105 13 120 0.0 0.0 0.00 0.00 0.00 87 1016.7
20200929073105 13 120 0.0 0.0 0.00 0.00 0.00 86 1016.6
20200929072105 13 120 0.0 0.0 0.00 0.00 0.00 86 1016.6
20200929071606 13 120 0.0 0.0 0.00 0.00 0.00 85 1016.5
20200929070604 13 120 0.0 0.0 0.00 0.00 0.00 85 1016.5
20200929070107 13 120 0.0 0.0 0.00 0.00 0.00 85 1016.5
20200929065606 13 120 0.0 0.0 0.00 0.00 0.00 84 1016.4
20200929065111 13 120 0.0 0.0 0.00 0.00 0.00 84 1016.4
20200929064607 13 120 0.0 0.0 0.00 0.00 0.00 84 1016.2
20200929063105 13 120 0.0 0.0 0.00 0.00 0.00 84 1016.3
20200929062105 13 120 0.0 0.0 0.00 0.00 0.00 84 1016.1
20200929061605 13 120 0.0 0.0 0.00 0.00 0.00 84 1016.1
20200929061106 13 120 0.0 0.0 0.00 0.00 0.00 84 1016.1
20200929060606 13 120 0.0 0.0 0.00 0.00 0.00 84 1016.0
20200929060111 13 120 0.0 0.0 0.00 0.00 0.00 84 1016.0
20200929055604 13 120 0.0 0.0 0.00 0.00 0.00 84 1016.0
20200929054104 13 120 0.0 0.0 0.00 0.00 0.00 83 1016.0
20200929053606 13 120 0.0 0.0 0.00 0.00 0.00 83 1016.0
20200929053105 13 120 0.0 0.0 0.00 0.00 0.00 83 1016.0
20200929051604 13 120 0.0 3.2 0.00 0.00 0.00 83 1016.0
20200929051104 13 120 3.2 3.2 0.00 0.00 0.00 83 1016.0
20200929050605 13 120 3.2 3.2 0.00 0.00 0.00 82 1016.0
20200929050106 13 120 3.2 3.2 0.00 0.00 0.00 82 1016.0
20200929045605 13 120 3.2 3.2 0.00 0.00 0.00 81 1015.9
20200929045107 13 120 3.2 3.2 0.00 0.00 0.00 81 1015.9
20200929044108 14 120 3.2 3.2 0.00 0.00 0.00 81 1015.9
20200929043611 14 120 3.2 3.2 0.00 0.00 0.00 81 1015.8
20200929042613 14 120 3.2 3.2 0.00 0.00 0.00 81 1015.8
20200929041605 14 120 3.2 8.0 0.00 0.00 0.00 81 1015.8
20200929035606 14 0 8.0 8.0 0.00 0.00 0.00 80 1015.8
20200929035108 14 0 8.0 8.0 0.00 0.00 0.00 80 1015.8
20200929034618 15 0 8.0 8.0 0.00 0.00 0.00 80 1015.8
20200929034106 15 0 8.0 8.0 0.00 0.00 0.00 80 1015.8
20200929032605 15 0 8.0 8.0 0.00 0.00 0.00 79 1015.8
20200929032105 15 0 8.0 8.0 0.00 0.00 0.00 79 1015.8
20200929031605 15 0 8.0 8.0 0.00 0.00 0.00 78 1015.8
20200929030606 15 20 3.2 3.2 0.00 0.00 0.00 77 1015.9
20200929030109 15 20 3.2 3.2 0.00 0.00 0.00 77 1015.9